星链-6286 (STARLINK-6286 )

导读

STARLINK-6286是美国于2023年5月14日发射的星链卫星,隶属于SpaceX公司主导的星链互联网项目。该项目旨在通过近地轨道卫星群,为全球提供高速低延迟宽带互联网服务。作为星链组网卫星之一,它进一步扩充了星链星座规模,推动全球卫星互联网覆盖网络的构建。

Basic Information
目录编号:
56558
目录名称:
STARLINK-6286
国际标识:
2023-065BH
轨道中心:
EARTH
卫星名称:
星链-6286
卫星全名:
星链-6286 (STARLINK-6286 )
卫星状态:
在轨 (已飞行1217 天)
发射日期:
2023-05-14 UTC
国别 :
美国 (US)
星等 :
--
This satellite is enrolled in the Space Conjunction Data Service (SCDS) and the current flight risk assessment level is: No High Risk
Orbit Information
数据来源 国际轨道数据 AOE轨道数据
星历时间 2026-09-11T09:44:11+0800
1天前
查看轨道信息
2026-09-07T06:00:00+0800
5天前
查看轨道信息
半长轴 6861.196km 6861.188km
偏心率 0.0001576 0.0001805
轨道倾角 43.004° 43.003°
近地点辐角 275.295° 270.244°
升交点赤经 260.067° 283.538°
平近点角 84.772° 249.765°
近地点 481.977km 481.812km
远地点 484.141km 484.29km
周期 94.267分钟 94.267分钟
每日圈数 15.275767 15.275794
Detailed Information
固有亮度:
5
最大亮度:
2.5
卫星平台:
Starlink v1.5
覆盖范围:
全球
运营商:
太空探索技术公司
运营商所在国:
美国
制造商(研发单位):
太空探索技术公司
制造商所在国:
美国
使用方式:
暂无
Satellite Introduction
星链(Starlink)计划是由太空探索技术公司(SpaceX)提出的一个巨型低轨卫星互联网星座项目,计划在2019年至2024年间在太空搭建由约1.2万颗卫星组成的“星链”网络,其中1584颗将部署在地球上空550千米处的近地轨道,并从2020年开始工作。该卫星仍在工作。
2D Orbit Map
3D Orbit Map
Orbit Altitude Analysis Chart
Orbit Inclination Analysis Chart
Orbit Comprehensive Analysis Chart
View Comprehensive Chart
Conjunction Data List
Event ID Objects TCA Miss Dist (km) Collision Risk Probability Collision Risk Index (CRI) Action
CDM_260912-065305-655805-695724
2026-09-12T
06:53:00+0000
2.220 km
极远距离
2.177731E-6 低风险 0.42
CDM_260910-053805-655806-196821
2026-09-10T
05:38:17+0000
1.914 km
极远距离
1.582338E-6 低风险 0.39
CDM_260913-135205-187305-655822
2026-09-13T
13:52:02+0000
2.158 km
极远距离
8.491666E-7 极低风险 0.34
Miss Distance Evolution Trend with All Objects
Collision Probability Evolution Trend with All Objects